ジャコビニ彗星

205P/Giacobini (2008)

English version
Home page
Updated on May 5, 2012

---------------------------------------------------------------------

・ プロフィール

符号 205P/2008 R6
再発見日 2008年9月10日
再発見光度 13.5等
再発見者 板垣公一 (山形県山形市), 金田宏 (北海道札幌市)

・ 写真集

・ 軌道要素

Epoch 2008 Sept. 11.0 TT = JDT 2454720.5
T 2008 Sept. 10.04267 TT                                MPC
q   1.5264496            (2000.0)            P               Q
n   0.14800538     Peri.  154.21884     +0.89773496     +0.44053268
a   3.5395744      Node   179.63013     -0.43588378     +0.88880857
e   0.5687477      Incl.   15.30444     -0.06385355     +0.12629444
P   6.66
From 1392 observations 1896 Sept. 5-2009 Feb. 28, mean residual 1".1.
     Nongravitational parameters A1 = +1.35, A2 = +0.0303.

・ 星図

・ 光度変化

        A核:
        m1 = 8.5 + 5 logΔ + 30 log r  [  ,60]  (              〜2008年11月 9日)
        m1 = 9.0 + 5 logΔ + 20 log r  [60,  ]  (2008年11月 9日〜              )

        B核:
        m1 = 14.0 + 5 logΔ + 30 log r

        C核:
        m1 = 15.0 + 5 logΔ + 30 log r

---------------------------------------------------------------------

軌道要素はM.P.E.C. 2012-J16に掲載されたものです。
星図はステラナビゲータ Ver.8 (アストロアーツ) で作成したものです。
光度グラフはComet for Windowsで作成したものです。

---------------------------------------------------------------------

Copyright(C) Seiichi Yoshida (comet@aerith.net). All rights reserved.